Charleston, SC

1:58 AM EDT on April 25, 2018 (GMT -0400)
Charleston Air Force Base-International

Weather History for KCHS - April, 2013

Change the Weather History Date:

Monday, April 15, 2013

  Actual Average Record
Temperature  
Mean Temperature 67 °F 65 °F  
Max Temperature 73 °F 76 °F 92 °F (2006)
Min Temperature 61 °F 53 °F 33 °F (1950)
Degree Days  
Heating Degree Days 0 3  
Month to date heating degree days 46 59  
Since 1 July heating degree days 1811 1934  
Cooling Degree Days 2 3  
Month to date cooling degree days 37 31  
Year to date cooling degree days 68 65  
Growing Degree Days 18 (Base 50)    
Moisture  
Dew Point 62 °F    
Average Humidity 79    
Maximum Humidity 93    
Minimum Humidity 64    
Precipitation  
Precipitation 0.64 in 0.10 in 4.10 in (1958)
Month to date precipitation 3.57 1.48  
Year to date precipitation 18.46 11.86  
Snow  
Snow 0.00 in 0.00 in - ()
Month to date snowfall 0.0  
Since 1 July snowfall T 0.5  
Snow Depth 0.00 in    
Sea Level Pressure  
Sea Level Pressure 30.02 in    
Wind  
Wind Speed 7 mph (ENE)    
Max Wind Speed 32 mph    
Max Gust Speed 37 mph    
Visibility 9 miles    
Events Fog , Rain    
T = Trace of Precipitation, MM = Missing Value Source: NWS Daily Summary

Daily Weather History Graph

Daily Weather History Graph

Search for Another Location

Airport or City:

Astronomy

Apr. 15, 2013 Rise Set
Actual Time 6:50 AM EDT 7:50 PM EDT
Civil Twilight 6:24 AM EDT 8:15 PM EDT
Nautical Twilight 5:54 AM EDT 8:46 PM EDT
Astronomical Twilight 5:23 AM EDT 9:17 PM EDT
Moon 10:23 AM EDT (4/15) No Moon Set
Length of Visible Light 13h 51m
Length of Day
13h 00m
Waxing Crescent, 24% of the Moon is Illuminated
Apr 15
Waxing Crescent
Apr 18
First Quarter
Apr 25
Full
May 2
Last Quarter
May 9
New

Hourly Weather History & Observations

Time (EDT) Temp. Dew Point Humidity Pressure Visibility Wind Dir Wind Speed Gust Speed Precip Events Conditions
12:56 AM 64.0 °F 60.1 °F 87% 29.98 in 6.0 mi East 6.9 mph - 0.14 in Rain Heavy Rain
1:56 AM 64.0 °F 62.1 °F 93% 29.89 in 3.0 mi SE 20.7 mph 33.4 mph 0.54 in Rain Rain
2:56 AM 64.9 °F 62.1 °F 90% 29.91 in 5.0 mi ESE 16.1 mph 26.5 mph 0.10 in Rain Light Rain
3:56 AM 64.9 °F 62.1 °F 90% 29.91 in 10.0 mi East 11.5 mph - 0.02 in Rain Light Rain
4:34 AM 64.4 °F 62.6 °F 94% 29.90 in 10.0 mi East 9.2 mph - 0.01 in Rain Light Rain
4:56 AM 64.9 °F 62.1 °F 90% 29.90 in 10.0 mi East 9.2 mph - 0.01 in Rain Light Rain
5:02 AM 64.4 °F 62.6 °F 94% 29.90 in 10.0 mi East 5.8 mph - 0.00 in   Overcast
5:56 AM 64.9 °F 62.1 °F 90% 29.91 in 10.0 mi NNE 5.8 mph - 0.00 in   Overcast
6:56 AM 64.0 °F 62.1 °F 93% 29.95 in 10.0 mi North 4.6 mph - 0.00 in   Overcast
7:34 AM 64.4 °F 62.6 °F 94% 29.97 in 8.0 mi NNE 4.6 mph - 0.00 in Rain Light Rain
7:56 AM 64.9 °F 62.1 °F 90% 29.98 in 10.0 mi North 5.8 mph - 0.00 in Rain Light Rain
8:41 AM 64.4 °F 62.6 °F 94% 29.99 in 10.0 mi North 8.1 mph - 0.00 in   Overcast
8:56 AM 66.0 °F 63.0 °F 90% 29.99 in 10.0 mi NNE 5.8 mph - 0.00 in   Overcast
9:56 AM 66.0 °F 63.0 °F 90% 30.02 in 8.0 mi North 8.1 mph - N/A   Overcast
10:56 AM 66.9 °F 64.0 °F 90% 30.04 in 10.0 mi ENE 6.9 mph - N/A   Overcast
11:15 AM 68.0 °F 64.4 °F 88% 30.04 in 10.0 mi ENE 8.1 mph - N/A   Overcast
11:56 AM 69.1 °F 64.0 °F 84% 30.05 in 10.0 mi NE 9.2 mph - N/A   Overcast
12:56 PM 68.0 °F 63.0 °F 84% 30.07 in 10.0 mi ENE 5.8 mph - N/A   Overcast
1:56 PM 70.0 °F 63.0 °F 78% 30.07 in 10.0 mi NE 3.5 mph - 0.00 in   Overcast
2:19 PM 71.6 °F 64.4 °F 78% 30.07 in 10.0 mi NE 4.6 mph - N/A   Overcast
2:43 PM 71.6 °F 62.6 °F 73% 30.07 in 10.0 mi Variable 5.8 mph - N/A   Overcast
2:56 PM 72.0 °F 62.1 °F 71% 30.07 in 10.0 mi ENE 5.8 mph - N/A   Overcast
3:56 PM 72.0 °F 61.0 °F 68% 30.06 in 10.0 mi East 6.9 mph - N/A   Overcast
4:56 PM 72.0 °F 61.0 °F 68% 30.08 in 10.0 mi ENE 5.8 mph - N/A   Overcast
5:56 PM 73.0 °F 60.1 °F 64% 30.08 in 10.0 mi East 6.9 mph - N/A   Mostly Cloudy
6:56 PM 72.0 °F 59.0 °F 64% 30.09 in 10.0 mi East 6.9 mph - N/A   Scattered Clouds
7:56 PM 69.1 °F 60.1 °F 73% 30.10 in 10.0 mi ESE 6.9 mph - N/A   Partly Cloudy
8:56 PM 68.0 °F 61.0 °F 78% 30.12 in 10.0 mi Variable 4.6 mph - N/A   Partly Cloudy
9:56 PM 66.0 °F 61.0 °F 84% 30.16 in 10.0 mi NE 4.6 mph - N/A   Partly Cloudy
10:56 PM 64.0 °F 61.0 °F 90% 30.16 in 10.0 mi Calm Calm - N/A   Partly Cloudy
11:56 PM 66.9 °F 61.0 °F 81% 30.17 in 7.0 mi ENE 3.5 mph - N/A Fog Shallow Fog